When you browse on this site, cookies collect data to enhance your experience and personalize the content and advertising you see.
Visit our Privacy Policy to learn more. By continuing to use the site, you agree to this use of cookies and data.
  • In Österreich
  • Länderverzeichnis
  • Für 7 Tage
  • Wassertemperatur
  • Wetterkarte
  • News
  • Widgets
  • user-avatar
    Anmelden

    Stündliche Wetter Port Gentil

    Heute, 21 Januar, Dienstag

    Zeit Temperatur Niederschläge Wind Luftdruck Luftfeuchtigkeit
    00:00 +29°C° 0.2 mm 1 m/S 758 mmHg 81%
    01:00 +29°C° 0 mm 3 m/S 757 mmHg 82%
    02:00 +28°C° 0 mm 3 m/S 757 mmHg 82%
    03:00 +28°C° 0 mm 3 m/S 757 mmHg 83%
    04:00 +28°C° 0 mm 4 m/S 756 mmHg 83%
    05:00 +28°C° 0 mm 3 m/S 757 mmHg 84%
    06:00 +28°C° 0 mm 3 m/S 757 mmHg 85%
    07:00 +28°C° 0 mm 2 m/S 758 mmHg 85%
    08:00 +29°C° 0 mm 2 m/S 758 mmHg 79%
    09:00 +31°C° 0 mm 2 m/S 758 mmHg 73%
    10:00 +32°C° 0 mm 1 m/S 759 mmHg 66%
    11:00 +32°C° 0.2 mm 2 m/S 758 mmHg 68%
    12:00 +32°C° 0.2 mm 2 m/S 758 mmHg 69%
    13:00 +32°C° 0.2 mm 2 m/S 757 mmHg 70%
    14:00 +33°C° 0.5 mm 3 m/S 757 mmHg 71%
    15:00 +31°C° 0.5 mm 3 m/S 756 mmHg 71%
    16:00 +31°C° 0.5 mm 3 m/S 756 mmHg 72%
    17:00 +30°C° 0.9 mm 4 m/S 756 mmHg 76%
    18:00 +30°C° 0.9 mm 4 m/S 757 mmHg 79%
    19:00 +29°C° 0.9 mm 4 m/S 757 mmHg 83%
    20:00 +29°C° 0.3 mm 4 m/S 758 mmHg 84%
    21:00 +29°C° 0.3 mm 3 m/S 758 mmHg 84%
    22:00 +28°C° 0.3 mm 3 m/S 758 mmHg 85%
    23:00 +28°C° 0 mm 3 m/S 758 mmHg 85%

    Morgen, 22 Januar, Mittwoch

    Zeit Temperatur Niederschläge Wind Luftdruck Luftfeuchtigkeit
    00:00 +28°C° 0 mm 4 m/S 758 mmHg 86%
    01:00 +28°C° 0 mm 4 m/S 758 mmHg 87%
    02:00 +28°C° 0 mm 4 m/S 757 mmHg 87%
    03:00 +28°C° 0 mm 3 m/S 757 mmHg 87%
    04:00 +28°C° 0 mm 3 m/S 757 mmHg 87%
    05:00 +28°C° 0 mm 3 m/S 757 mmHg 88%
    06:00 +28°C° 0 mm 2 m/S 758 mmHg 89%
    07:00 +27°C° 0 mm 2 m/S 758 mmHg 89%
    08:00 +29°C° 0.2 mm 2 m/S 758 mmHg 84%
    09:00 +30°C° 0.2 mm 2 m/S 759 mmHg 79%
    10:00 +31°C° 0.2 mm 1 m/S 759 mmHg 74%
    11:00 +31°C° 0.1 mm 1 m/S 759 mmHg 72%
    12:00 +32°C° 0.1 mm 2 m/S 758 mmHg 69%
    13:00 +32°C° 0.1 mm 2 m/S 758 mmHg 67%
    14:00 +33°C° 0 mm 3 m/S 757 mmHg 67%
    15:00 +33°C° 0 mm 4 m/S 756 mmHg 68%
    16:00 +33°C° 0 mm 5 m/S 756 mmHg 68%
    17:00 +32°C° 0.1 mm 5 m/S 756 mmHg 72%
    18:00 +30°C° 0.1 mm 5 m/S 756 mmHg 76%
    19:00 +30°C° 0.1 mm 5 m/S 757 mmHg 80%
    20:00 +29°C° 0.3 mm 4 m/S 757 mmHg 81%
    21:00 +29°C° 0.3 mm 4 m/S 758 mmHg 82%
    22:00 +29°C° 0.3 mm 4 m/S 758 mmHg 83%
    23:00 +29°C° 1.4 mm 4 m/S 758 mmHg 84%

    übermorgen, 23 Januar, Donnerstag

    Zeit Temperatur Niederschläge Wind Luftdruck Luftfeuchtigkeit
    00:00 +29°C° 1.4 mm 4 m/S 758 mmHg 85%
    01:00 +28°C° 1.4 mm 3 m/S 757 mmHg 86%
    02:00 +28°C° 0.2 mm 3 m/S 757 mmHg 86%
    03:00 +28°C° 0.2 mm 3 m/S 757 mmHg 86%
    04:00 +28°C° 0.2 mm 3 m/S 756 mmHg 86%
    05:00 +28°C° 0 mm 3 m/S 757 mmHg 86%
    06:00 +28°C° 0 mm 3 m/S 757 mmHg 86%
    07:00 +28°C° 0 mm 3 m/S 757 mmHg 86%
    08:00 +29°C° 0 mm 3 m/S 757 mmHg 80%
    09:00 +31°C° 0 mm 3 m/S 758 mmHg 74%
    10:00 +32°C° 0 mm 2 m/S 758 mmHg 69%
    11:00 +32°C° 0.1 mm 2 m/S 758 mmHg 69%
    12:00 +32°C° 0.1 mm 2 m/S 757 mmHg 69%
    13:00 +32°C° 0.1 mm 2 m/S 757 mmHg 69%
    14:00 +33°C° 0 mm 3 m/S 757 mmHg 68%
    15:00 +33°C° 0 mm 3 m/S 756 mmHg 68%
    16:00 +33°C° 0 mm 4 m/S 756 mmHg 67%
    17:00 +32°C° 0.3 mm 4 m/S 756 mmHg 71%
    18:00 +30°C° 0.3 mm 4 m/S 756 mmHg 75%
    19:00 +29°C° 0.3 mm 4 m/S 757 mmHg 78%
    20:00 +29°C° 0.2 mm 4 m/S 757 mmHg 80%
    21:00 +29°C° 0.2 mm 3 m/S 757 mmHg 81%
    22:00 +29°C° 0.2 mm 3 m/S 758 mmHg 82%
    23:00 +29°C° 0.2 mm 3 m/S 758 mmHg 82%

    24 Januar, Freitag

    Zeit Temperatur Niederschläge Wind Luftdruck Luftfeuchtigkeit
    00:00 +29°C° 0.2 mm 3 m/S 758 mmHg 82%
    01:00 +29°C° 0.2 mm 3 m/S 757 mmHg 83%
    02:00 +28°C° 0 mm 3 m/S 757 mmHg 83%
    03:00 +28°C° 0 mm 3 m/S 757 mmHg 83%
    04:00 +28°C° 0 mm 3 m/S 756 mmHg 84%
    05:00 +28°C° 0 mm 3 m/S 757 mmHg 84%
    06:00 +28°C° 0 mm 2 m/S 757 mmHg 84%
    07:00 +28°C° 0 mm 2 m/S 757 mmHg 84%
    08:00 +29°C° 0 mm 2 m/S 757 mmHg 78%
    09:00 +31°C° 0 mm 2 m/S 758 mmHg 72%
    10:00 +32°C° 0 mm 2 m/S 758 mmHg 66%
    11:00 +32°C° 0.1 mm 2 m/S 758 mmHg 66%
    12:00 +32°C° 0.1 mm 2 m/S 757 mmHg 67%
    13:00 +32°C° 0.1 mm 2 m/S 757 mmHg 67%
    14:00 +32°C° 0 mm 2 m/S 757 mmHg 67%
    15:00 +32°C° 0 mm 2 m/S 756 mmHg 66%
    16:00 +33°C° 0 mm 3 m/S 756 mmHg 66%
    17:00 +31°C° 0 mm 3 m/S 756 mmHg 70%
    18:00 +30°C° 0 mm 3 m/S 756 mmHg 73%
    19:00 +30°C° 0 mm 4 m/S 757 mmHg 77%
    20:00 +29°C° 0 mm 4 m/S 757 mmHg 79%
    21:00 +29°C° 0 mm 4 m/S 757 mmHg 80%
    22:00 +29°C° 0 mm 4 m/S 758 mmHg 82%
    23:00 +29°C° 0.1 mm 4 m/S 758 mmHg 83%

    25 Januar, Samstag

    Zeit Temperatur Niederschläge Wind Luftdruck Luftfeuchtigkeit
    00:00 +29°C° 0.1 mm 4 m/S 758 mmHg 84%
    01:00 +28°C° 0.1 mm 4 m/S 757 mmHg 85%
    02:00 +28°C° 0.1 mm 4 m/S 757 mmHg 85%
    03:00 +28°C° 0.1 mm 4 m/S 757 mmHg 85%
    04:00 +28°C° 0.1 mm 4 m/S 757 mmHg 86%
    05:00 +28°C° 0 mm 4 m/S 757 mmHg 85%
    06:00 +28°C° 0 mm 4 m/S 757 mmHg 85%
    07:00 +28°C° 0 mm 4 m/S 758 mmHg 85%
    08:00 +29°C° 0 mm 4 m/S 758 mmHg 79%
    09:00 +32°C° 0 mm 4 m/S 758 mmHg 73%
    10:00 +33°C° 0 mm 3 m/S 758 mmHg 67%
    11:00 +33°C° 0.1 mm 3 m/S 758 mmHg 66%
    12:00 +33°C° 0.1 mm 3 m/S 757 mmHg 66%
    13:00 +33°C° 0.1 mm 3 m/S 757 mmHg 65%
    14:00 +33°C° 0.1 mm 3 m/S 756 mmHg 66%
    15:00 +33°C° 0.1 mm 4 m/S 756 mmHg 66%
    16:00 +33°C° 0.1 mm 4 m/S 755 mmHg 66%
    17:00 +32°C° 0 mm 4 m/S 756 mmHg 70%
    18:00 +30°C° 0 mm 4 m/S 756 mmHg 74%
    19:00 +29°C° 0 mm 4 m/S 756 mmHg 77%
    20:00 +29°C° 0 mm 4 m/S 757 mmHg 78%
    21:00 +29°C° 0 mm 3 m/S 757 mmHg 80%
    22:00 +29°C° 0 mm 3 m/S 758 mmHg 81%
    23:00 +29°C° 0 mm 3 m/S 758 mmHg 82%

    26 Januar, Sonntag

    Zeit Temperatur Niederschläge Wind Luftdruck Luftfeuchtigkeit
    00:00 +29°C° 0 mm 3 m/S 758 mmHg 83%
    01:00 +29°C° 0 mm 3 m/S 758 mmHg 84%
    02:00 +28°C° 0.2 mm 3 m/S 757 mmHg 84%
    03:00 +28°C° 0.2 mm 3 m/S 757 mmHg 85%
    04:00 +28°C° 0.2 mm 4 m/S 757 mmHg 85%
    05:00 +28°C° 0.6 mm 3 m/S 757 mmHg 85%
    06:00 +28°C° 0.6 mm 3 m/S 758 mmHg 85%
    07:00 +28°C° 0.6 mm 3 m/S 758 mmHg 85%
    08:00 +29°C° 0.1 mm 2 m/S 758 mmHg 79%
    09:00 +30°C° 0.1 mm 2 m/S 759 mmHg 73%
    10:00 +32°C° 0.1 mm 2 m/S 759 mmHg 67%
    11:00 +33°C° 0.1 mm 3 m/S 758 mmHg 67%
    12:00 +33°C° 0.1 mm 3 m/S 758 mmHg 67%
    13:00 +33°C° 0.1 mm 4 m/S 758 mmHg 67%
    14:00 +33°C° 0.1 mm 4 m/S 757 mmHg 68%
    15:00 +33°C° 0.1 mm 4 m/S 756 mmHg 69%
    16:00 +32°C° 0.1 mm 5 m/S 756 mmHg 70%
    17:00 +32°C° 0.3 mm 5 m/S 756 mmHg 74%
    18:00 +30°C° 0.3 mm 4 m/S 756 mmHg 78%
    19:00 +29°C° 0.3 mm 4 m/S 757 mmHg 82%
    20:00 +29°C° 0.7 mm 4 m/S 757 mmHg 83%
    21:00 +29°C° 0.7 mm 4 m/S 758 mmHg 83%
    22:00 +28°C° 0.7 mm 4 m/S 758 mmHg 84%
    23:00 +28°C° 0.7 mm 4 m/S 758 mmHg 84%
    Mehr zeigen